Location: Centerville
(32.8776°N, 96.6203°W)
Time: 13:35:59
(UTC+00:00)

USA 305 - Pass Details

Date: 17 June 2021
Orbit: 558 x 580 km, 54.0° (Epoch: 13 July)

Event Time Altitude Azimuth Distance (km) Brightness Sun altitude
Exits shadow 09:08:20 26° 301° (WNW) 1,104 4.2 -21.9°
Maximum altitude 09:09:06 28° 320° (NW) 1,058 4.3 -21.8°
Drops below altitude 10° 09:12:45 10° 21° (NNE) 1,847 6.5 -21.3°
Sets 09:15:14 0° 33° (NNE) 2,748 7.9 -21.0°
